Calendrier des événements

Data pager
Data pager
 Élément 1 à 50 de 402
of 9 
show all 402
DateÉvénementCode d ÉvénementProvince
Data pager
Data pager
 Élément 1 à 50 de 402
of 9 
show all 402
4/28/2017Meilleures Pratiques des Avantages Sociaux - Pointe-Claire539206_17QC539206_17
4/28/2017Best Practice of Employee Benefits - London544003_17ON544003_17
4/28/2017Communication for the the Payroll Profesional - Vaughan551014_17ON551014_17
4/28/2017Member Onboarding Event - TorontoRETENT0117ONRETENT0117
4/29/2017Employment Standards - Burnaby571010_17BC571010_17
5/1/2017LCP En Ligne Mai (Legislation Sur la Conformite)FrancaisS17PCL805F S17PCL805F
5/1/2017PF2 - Camosun CollegeS17PF2291BCS17PF2291
5/3/2017Comptabilité de la Paie • Principes de Base - La Prairie539306_17QC539306_17
5/3/2017Payroll Administration in Quebec (2 Days)-Mississauga/CHSI552015_17ON552015_17
5/3/2017PCL - Fanshawe College (Part Time)S17PCL220ONS17PCL220
5/3/2017PF1 - Lethbridge College (Payroll Fundamentals 2)S17PF2290ABS17PF2290
5/4/2017Principes Fondamentaux des RH - Montreal531015_17QC531015_17
5/4/2017L'équité Salariale- Demi Journée (PM) - Laval539102_17QC539102_17
5/4/2017New Date! - Taxable Benefits - Ottawa541002_17ON541002_17
5/4/2017Employment Standards - Toronto551020_17ON551020_17
5/4/2017Communication for the Payroll Professional - Grande Prairie569201_17AB569201_17
5/5/2017Employment Standards - Fredericton523002_17NB523002_17
5/5/2017L'équité Salariale- Demi-journée- AM- Montréal531008_17QC531008_17
5/5/2017Réseautage: Gestion des Absences Non Rémunérées - Laval535906_17QC535906_17
5/5/2017Réseautage: Temps et Présence - Montreal535908_17QC535908_17
5/5/2017Calcul Indemnite « 14 Premiers Jours » CSST -AM - La Prairie539308_17QC539308_17
5/5/2017Taxable Benefits - Thunder Bay549001_17ON549001_17
5/5/2017Employment Standards - Lethbridge569501_17AB569501_17
5/6/2017PCL - Mount Royal UniversityS17PCL214ABS17PCL214
5/8/2017PCL - Niagara College (Payroll Compliance Legislation)S17PCL298ONS17PCL298
5/8/2017PCL - Centennial College (Full-time)S17PCL339ONS17PCL339
5/8/2017PF1 - Niagara College (Part-time)S17PF1298ONS17PF1298
5/9/2017PCL - George Brown College - P/TS17PCL224ONS17PCL224
5/9/2017PF1 - Humber College (Part-time)S17PF1294ONS17PF1294
5/9/2017PF2 - Humber College (Part-time)S17PF2294ONS17PF2294
5/10/2017COMPLET-Notions Fondamentales de la Paie 1 - Laval539103_17QC539103_17
5/10/2017Employment Standards - Barrie548001_17ON548001_17
5/10/2017Best Practice of Employee Benefits - Edmonton561009_17AB561009_17
5/10/2017U.K. Payroll Administration for Canadian (2 Days) -Vancouver571011_17BC571011_17
5/10/2017PCL - Humber College (Part-time)S17PCL294ONS17PCL294
5/10/2017PCL - Seneca College (Full-time) WednesdayS17PCL381ONS17PCL381
5/10/2017PF2 - George Brown College (Payroll Fundamentals 2)S17PF2224ONS17PF2224
5/10/2017PF2 - Online - May (Payroll Fundamentals 2)S17PF2805 S17PF2805
5/10/2017PF2 - En Ligne Mai (Principes Fondamentaux II)FrancaisS17PF2805F S17PF2805F
5/11/2017Payroll Continuity Planning - ARCHIVE5050113_16 5050113_16
5/11/2017Planification de la Continuité de la Paie - Archivé5050114_16 5050114_16
5/11/2017Employment Standards - Halifax522006_17NS522006_17
5/11/2017Réseautage: Départ et Congédiement - Montréal535909_17QC535909_17
5/11/2017Notions Fondamentales de la Paie 2 - Laval539104_17QC539104_17
5/11/2017Learning Payroll I - Timmins549002_17ON549002_17
5/11/2017Terminations - Mississauga/ CHSI552009_17ON552009_17
5/11/2017Network and Share: US Payroll - Mississauga552901_17ON552901_17
5/11/2017Best Practice of Employee Benefits - Red Deer569401_17AB569401_17
5/11/2017Network & Share: Checklist: Hire and Terminations - Kelowna573901_17BC573901_17
5/11/2017Employment Standards - Abbotsford575003_17BC575003_17